User: anonymous   Login
Location: Oshawa
(43.9000°N, 78.8670°W)
Time: 13:17:42
(UTC-05:00)
Language:

Cosmos 1821 Rocket - Orbit

View from above orbital plane
View from above orbital plane
View from above satellite
View from above satellite

Ground track
Ground track

The orbit data is extracted from the following two-line orbital elements,

1 17526U 87017B   14331.20169544  .00000135  00000-0  12059-3 0  1730
2 17526 082.9037 017.3565 0041050 047.2998 011.7671 13.76717396377974
Epoch (UTC): 27 November 2014 04:50:26
Eccentricity: 0.0041050
inclination: 82.9037°
perigee height: 945 km
apogee height: 1006 km
right ascension of ascending node: 17.3565°
argument of perigee: 47.2998°
revolutions per day: 13.76717396
mean anomaly at epoch: 11.7671°
orbit number at epoch: 37797

The dashed part of the orbit path shows where the satellite is in the earth's shadow,  

DLR